• Em Portugal
  • Lista de países
  • Para 7 dias
  • Temperatura da água
  • Mapas de satélite
  • Mapa do tempo
  • Widgets de tempo
  • user-avatar
    Iniciar Sessão

    Previsão horária em Etchmiadzin

    Hoje, 20 Junho, Quarta-feira

    Tempo Temperatura Precipitação Vento Pressão Humidade
    00:00 +20°C° 0,4 mm 2 m/s 685 mmHg 69%
    01:00 +20°C° 0,3 mm 2 m/s 685 mmHg 70%
    02:00 +19°C° 0,3 mm 2 m/s 685 mmHg 71%
    03:00 +19°C° 0,3 mm 2 m/s 685 mmHg 73%
    04:00 +20°C° 0,3 mm 2 m/s 685 mmHg 71%
    05:00 +21°C° 0,3 mm 1 m/s 685 mmHg 69%
    06:00 +22°C° 0,3 mm 1 m/s 686 mmHg 67%
    07:00 +24°C° 0,3 mm 1 m/s 686 mmHg 61%
    08:00 +25°C° 0,3 mm 1 m/s 686 mmHg 55%
    09:00 +27°C° 0,3 mm 1 m/s 686 mmHg 49%
    10:00 +28°C° 0,6 mm 1 m/s 686 mmHg 46%
    11:00 +29°C° 0,6 mm 1 m/s 686 mmHg 43%
    12:00 +30°C° 0,6 mm 2 m/s 686 mmHg 40%
    13:00 +30°C° 0,5 mm 2 m/s 685 mmHg 39%
    14:00 +31°C° 0,5 mm 2 m/s 685 mmHg 39%
    15:00 +31°C° 0,5 mm 2 m/s 685 mmHg 38%
    16:00 +30°C° 0,4 mm 2 m/s 685 mmHg 41%
    17:00 +29°C° 0,4 mm 2 m/s 685 mmHg 44%
    18:00 +28°C° 0,4 mm 2 m/s 685 mmHg 47%
    19:00 +26°C° 0,3 mm 2 m/s 686 mmHg 53%
    20:00 +25°C° 0,3 mm 2 m/s 686 mmHg 58%
    21:00 +22°C° 0,3 mm 3 m/s 686 mmHg 64%
    22:00 +21°C° 0,2 mm 2 m/s 686 mmHg 66%
    23:00 +20°C° 0,2 mm 2 m/s 686 mmHg 69%

    Amanhã, 21 Junho, Quinta-feira

    Tempo Temperatura Precipitação Vento Pressão Humidade
    00:00 +20°C° 0,2 mm 2 m/s 686 mmHg 71%
    01:00 +19°C° 0,1 mm 2 m/s 686 mmHg 72%
    02:00 +19°C° 0,1 mm 2 m/s 686 mmHg 74%
    03:00 +18°C° 0,1 mm 2 m/s 686 mmHg 75%
    04:00 +19°C° 0,1 mm 2 m/s 687 mmHg 73%
    05:00 +20°C° 0,1 mm 2 m/s 687 mmHg 72%
    06:00 +20°C° 0,1 mm 2 m/s 687 mmHg 70%
    07:00 +23°C° 0 mm 2 m/s 687 mmHg 64%
    08:00 +25°C° 0 mm 1 m/s 687 mmHg 58%
    09:00 +26°C° 0 mm 1 m/s 687 mmHg 51%
    10:00 +27°C° 0,3 mm 1 m/s 687 mmHg 48%
    11:00 +29°C° 0,3 mm 2 m/s 687 mmHg 45%
    12:00 +30°C° 0,3 mm 2 m/s 686 mmHg 42%
    13:00 +30°C° 0,4 mm 2 m/s 686 mmHg 41%
    14:00 +31°C° 0,4 mm 2 m/s 686 mmHg 40%
    15:00 +31°C° 0,4 mm 2 m/s 686 mmHg 38%
    16:00 +30°C° 0,4 mm 2 m/s 685 mmHg 41%
    17:00 +30°C° 0,4 mm 2 m/s 685 mmHg 43%
    18:00 +29°C° 0,4 mm 2 m/s 685 mmHg 45%
    19:00 +27°C° 0,3 mm 2 m/s 685 mmHg 52%
    20:00 +25°C° 0,3 mm 2 m/s 685 mmHg 58%
    21:00 +22°C° 0,3 mm 3 m/s 686 mmHg 65%
    22:00 +23°C° 0,2 mm 2 m/s 686 mmHg 66%
    23:00 +21°C° 0,2 mm 2 m/s 686 mmHg 68%

    Depois de amanhã, 22 Junho, Sexta-feira

    Tempo Temperatura Precipitação Vento Pressão Humidade
    00:00 +21°C° 0,2 mm 2 m/s 686 mmHg 69%
    01:00 +20°C° 0 mm 2 m/s 685 mmHg 70%
    02:00 +20°C° 0 mm 2 m/s 685 mmHg 71%
    03:00 +20°C° 0 mm 2 m/s 685 mmHg 72%
    04:00 +20°C° 0 mm 2 m/s 685 mmHg 70%
    05:00 +21°C° 0 mm 2 m/s 685 mmHg 68%
    06:00 +23°C° 0 mm 2 m/s 685 mmHg 67%
    07:00 +24°C° 0,1 mm 2 m/s 685 mmHg 60%
    08:00 +26°C° 0,1 mm 2 m/s 685 mmHg 53%
    09:00 +28°C° 0,1 mm 2 m/s 685 mmHg 46%
    10:00 +29°C° 0,1 mm 2 m/s 685 mmHg 43%
    11:00 +30°C° 0,1 mm 2 m/s 684 mmHg 39%
    12:00 +31°C° 0,1 mm 3 m/s 684 mmHg 36%
    13:00 +33°C° 0,2 mm 3 m/s 684 mmHg 36%
    14:00 +33°C° 0,2 mm 3 m/s 683 mmHg 35%
    15:00 +33°C° 0,2 mm 3 m/s 683 mmHg 35%
    16:00 +31°C° 0,6 mm 3 m/s 683 mmHg 38%
    17:00 +31°C° 0,6 mm 2 m/s 683 mmHg 42%
    18:00 +30°C° 0,6 mm 2 m/s 682 mmHg 45%
    19:00 +28°C° 0,4 mm 2 m/s 683 mmHg 50%
    20:00 +26°C° 0,4 mm 3 m/s 683 mmHg 55%
    21:00 +24°C° 0,4 mm 3 m/s 683 mmHg 61%
    22:00 +22°C° 0,1 mm 3 m/s 683 mmHg 62%
    23:00 +23°C° 0,1 mm 2 m/s 683 mmHg 63%

    23 Junho, Sábado

    Tempo Temperatura Precipitação Vento Pressão Humidade
    00:00 +21°C° 0,1 mm 2 m/s 683 mmHg 65%
    01:00 +21°C° 0,1 mm 2 m/s 683 mmHg 66%
    02:00 +20°C° 0,1 mm 2 m/s 683 mmHg 66%
    03:00 +20°C° 0,1 mm 2 m/s 682 mmHg 67%
    04:00 +20°C° 0 mm 2 m/s 683 mmHg 65%
    05:00 +21°C° 0 mm 2 m/s 683 mmHg 63%
    06:00 +23°C° 0 mm 1 m/s 683 mmHg 61%
    07:00 +25°C° 0 mm 1 m/s 683 mmHg 55%
    08:00 +26°C° 0 mm 1 m/s 683 mmHg 49%
    09:00 +28°C° 0 mm 1 m/s 683 mmHg 43%
    10:00 +29°C° 0,2 mm 1 m/s 683 mmHg 40%
    11:00 +30°C° 0,2 mm 2 m/s 683 mmHg 38%
    12:00 +32°C° 0,2 mm 2 m/s 683 mmHg 35%
    13:00 +32°C° 0,3 mm 2 m/s 683 mmHg 34%
    14:00 +32°C° 0,3 mm 2 m/s 683 mmHg 34%
    15:00 +34°C° 0,3 mm 2 m/s 683 mmHg 33%
    16:00 +32°C° 0,4 mm 2 m/s 683 mmHg 36%
    17:00 +32°C° 0,4 mm 2 m/s 683 mmHg 39%
    18:00 +31°C° 0,4 mm 2 m/s 683 mmHg 42%
    19:00 +29°C° 0,3 mm 2 m/s 683 mmHg 47%
    20:00 +27°C° 0,3 mm 2 m/s 683 mmHg 52%
    21:00 +24°C° 0,3 mm 2 m/s 684 mmHg 57%
    22:00 +24°C° 0,4 mm 2 m/s 684 mmHg 59%
    23:00 +23°C° 0,4 mm 2 m/s 684 mmHg 61%

    24 Junho, Domingo

    Tempo Temperatura Precipitação Vento Pressão Humidade
    00:00 +23°C° 0,4 mm 2 m/s 684 mmHg 63%
    01:00 +21°C° 0,2 mm 2 m/s 684 mmHg 63%
    02:00 +21°C° 0,2 mm 2 m/s 684 mmHg 64%
    03:00 +20°C° 0,2 mm 2 m/s 684 mmHg 64%
    04:00 +21°C° 0 mm 2 m/s 684 mmHg 63%
    05:00 +23°C° 0 mm 2 m/s 684 mmHg 62%
    06:00 +23°C° 0 mm 2 m/s 685 mmHg 61%
    07:00 +25°C° 0 mm 2 m/s 685 mmHg 55%
    08:00 +27°C° 0 mm 2 m/s 685 mmHg 49%
    09:00 +29°C° 0 mm 2 m/s 685 mmHg 43%
    10:00 +30°C° 0,1 mm 2 m/s 685 mmHg 40%
    11:00 +31°C° 0,1 mm 2 m/s 685 mmHg 38%
    12:00 +32°C° 0,1 mm 2 m/s 685 mmHg 35%
    13:00 +34°C° 0,1 mm 2 m/s 685 mmHg 35%
    14:00 +34°C° 0,1 mm 2 m/s 684 mmHg 34%
    15:00 +35°C° 0,1 mm 3 m/s 684 mmHg 33%
    16:00 +34°C° 0,3 mm 3 m/s 684 mmHg 37%
    17:00 +34°C° 0,3 mm 3 m/s 684 mmHg 40%
    18:00 +33°C° 0,3 mm 4 m/s 684 mmHg 44%
    19:00 +30°C° 0,2 mm 3 m/s 685 mmHg 50%
    20:00 +28°C° 0,2 mm 3 m/s 685 mmHg 56%
    21:00 +25°C° 0,2 mm 3 m/s 685 mmHg 62%
    22:00 +25°C° 0 mm 3 m/s 685 mmHg 63%
    23:00 +24°C° 0 mm 3 m/s 685 mmHg 65%

    25 Junho, Segunda-feira

    Tempo Temperatura Precipitação Vento Pressão Humidade
    00:00 +24°C° 0 mm 3 m/s 685 mmHg 66%
    01:00 +22°C° 0 mm 3 m/s 685 mmHg 66%
    02:00 +22°C° 0 mm 3 m/s 685 mmHg 67%
    03:00 +21°C° 0 mm 2 m/s 685 mmHg 67%
    04:00 +23°C° 0 mm 2 m/s 685 mmHg 65%
    05:00 +23°C° 0 mm 2 m/s 685 mmHg 62%
    06:00 +24°C° 0 mm 2 m/s 685 mmHg 60%
    07:00 +26°C° 0 mm 2 m/s 686 mmHg 54%
    08:00 +28°C° 0 mm 2 m/s 686 mmHg 47%
    09:00 +30°C° 0 mm 2 m/s 686 mmHg 41%
    10:00 +32°C° 0 mm 2 m/s 686 mmHg 38%
    11:00 +34°C° 0 mm 2 m/s 685 mmHg 36%
    12:00 +35°C° 0 mm 3 m/s 685 mmHg 33%
    13:00 +36°C° 0 mm 3 m/s 685 mmHg 33%
    14:00 +36°C° 0 mm 3 m/s 685 mmHg 32%
    15:00 +37°C° 0 mm 3 m/s 684 mmHg 32%
    16:00 +36°C° 0,2 mm 3 m/s 684 mmHg 35%
    17:00 +35°C° 0,2 mm 3 m/s 684 mmHg 38%
    18:00 +34°C° 0,2 mm 3 m/s 684 mmHg 42%
    19:00 +31°C° 0,1 mm 3 m/s 684 mmHg 48%
    20:00 +29°C° 0,1 mm 3 m/s 684 mmHg 54%
    21:00 +26°C° 0,1 mm 3 m/s 684 mmHg 60%
    22:00 +26°C° 0 mm 3 m/s 684 mmHg 60%
    23:00 +25°C° 0 mm 3 m/s 684 mmHg 61%
    Mostrar mais